STARLINK-3326 (50844 NORAD) Tracking and Keplerian Element Data

This shows tracking and keplerian element data for the satellite.

Feedback or suggestion? Click here.




ElementValue
Catalog50844
NameSTARLINK-3326
Epoch Orbit2183
Epoch Day140.58334491
Epoch Year2022
RAAN295.0564
Inclination53.2183
Eccentricity0.0001994
Argument of Perigee39.3161
Mean Anonmoly172.159
Mean Motion15.08857797
Decay Rate-0.0002812
L11 50844U 22001AT 22140.58334491 -.00028120 00000+0 -17547-2 0 9992
L22 50844 53.2183 295.0564 0001994 39.3161 172.1590 15.08857797 21838

Live tracking and technical data element details for STARLINK-3326 (NORAD 50844). STARLINK-3326 can be tracked NOW for your location showing map with azimuth and elevation plus other details from your city location.

Track the satellite on the map from your city or location and see movement details for azimuth, elevation, latitude, longitude, range, height, and movement on the map or in text.







IsCatalogInMostPopularTable: catalog: 50844, numindb: 20
Update: records affected: 1



GetName: 50844 STARLINK-3326

Hit Count: updated at: Sun, 22 May 2022 05:31:26 GMT